When you browse on this site, cookies collect data to enhance your experience and personalize the content and advertising you see.
Visit our Privacy Policy to learn more. By continuing to use the site, you agree to this use of cookies and data.
  • En España
  • Lista de países
  • Para 7 días
  • Temperatura del agua
  • El tiempo en el mapa
  • Informadores
  • user-avatar
    Iniciar sesión

    Tiempo cada hora Semey

    Hoy, 20 Septiembre, Viernes

    Tiempo Temperatura Precipitaciones Viento Presión Humedad
    00:00 +21°C° 0 mm 4 mps 741 mmHg 33%
    01:00 +21°C° 0 mm 4 mps 740 mmHg 33%
    02:00 +20°C° 0 mm 4 mps 740 mmHg 33%
    03:00 +20°C° 0 mm 5 mps 740 mmHg 33%
    04:00 +20°C° 0 mm 5 mps 741 mmHg 33%
    05:00 +20°C° 0 mm 5 mps 741 mmHg 32%
    06:00 +21°C° 0 mm 5 mps 741 mmHg 30%
    07:00 +23°C° 0 mm 6 mps 741 mmHg 27%
    08:00 +24°C° 0 mm 6 mps 741 mmHg 25%
    09:00 +27°C° 0 mm 6 mps 741 mmHg 24%
    10:00 +28°C° 0 mm 5 mps 742 mmHg 22%
    11:00 +30°C° 0 mm 5 mps 742 mmHg 21%
    12:00 +30°C° 0 mm 5 mps 741 mmHg 22%
    13:00 +30°C° 0 mm 5 mps 741 mmHg 23%
    14:00 +30°C° 0 mm 5 mps 741 mmHg 24%
    15:00 +29°C° 0 mm 5 mps 741 mmHg 27%
    16:00 +28°C° 0 mm 4 mps 742 mmHg 30%
    17:00 +28°C° 0 mm 4 mps 742 mmHg 33%
    18:00 +26°C° 0 mm 4 mps 743 mmHg 31%
    19:00 +23°C° 0 mm 4 mps 743 mmHg 30%
    20:00 +21°C° 0 mm 4 mps 744 mmHg 29%
    21:00 +20°C° 0 mm 4 mps 744 mmHg 29%
    22:00 +18°C° 0 mm 3 mps 744 mmHg 29%
    23:00 +17°C° 0 mm 2 mps 744 mmHg 29%

    Mañana, 21 Septiembre, Sábado

    Tiempo Temperatura Precipitaciones Viento Presión Humedad
    00:00 +17°C° 0 mm 2 mps 744 mmHg 29%
    01:00 +16°C° 0 mm 2 mps 744 mmHg 30%
    02:00 +16°C° 0 mm 2 mps 744 mmHg 31%
    03:00 +16°C° 0 mm 2 mps 745 mmHg 32%
    04:00 +15°C° 0 mm 2 mps 745 mmHg 33%
    05:00 +15°C° 0 mm 2 mps 746 mmHg 34%
    06:00 +16°C° 0 mm 2 mps 746 mmHg 32%
    07:00 +18°C° 0 mm 3 mps 746 mmHg 30%
    08:00 +19°C° 0 mm 3 mps 746 mmHg 28%
    09:00 +20°C° 0 mm 3 mps 746 mmHg 26%
    10:00 +21°C° 0 mm 3 mps 746 mmHg 24%
    11:00 +22°C° 0 mm 3 mps 746 mmHg 21%
    12:00 +24°C° 0 mm 3 mps 746 mmHg 21%
    13:00 +23°C° 0 mm 4 mps 746 mmHg 21%
    14:00 +25°C° 0 mm 4 mps 745 mmHg 20%
    15:00 +23°C° 0 mm 4 mps 745 mmHg 22%
    16:00 +22°C° 0 mm 4 mps 746 mmHg 23%
    17:00 +22°C° 0 mm 4 mps 746 mmHg 24%
    18:00 +20°C° 0 mm 4 mps 746 mmHg 27%
    19:00 +18°C° 0 mm 4 mps 746 mmHg 29%
    20:00 +17°C° 0 mm 4 mps 746 mmHg 32%
    21:00 +15°C° 0 mm 4 mps 745 mmHg 34%
    22:00 +15°C° 0 mm 4 mps 745 mmHg 37%
    23:00 +14°C° 0 mm 4 mps 745 mmHg 39%

    Pasado mañana, 22 Septiembre, Domingo

    Tiempo Temperatura Precipitaciones Viento Presión Humedad
    00:00 +14°C° 0 mm 3 mps 744 mmHg 39%
    01:00 +13°C° 0 mm 3 mps 744 mmHg 40%
    02:00 +13°C° 0 mm 3 mps 744 mmHg 40%
    03:00 +13°C° 0 mm 3 mps 743 mmHg 40%
    04:00 +12°C° 0 mm 3 mps 743 mmHg 40%
    05:00 +13°C° 0 mm 2 mps 743 mmHg 40%
    06:00 +14°C° 0 mm 3 mps 742 mmHg 35%
    07:00 +17°C° 0 mm 3 mps 742 mmHg 31%
    08:00 +19°C° 0 mm 3 mps 741 mmHg 26%
    09:00 +22°C° 0 mm 4 mps 741 mmHg 25%
    10:00 +25°C° 0 mm 4 mps 740 mmHg 24%
    11:00 +27°C° 0 mm 5 mps 739 mmHg 24%
    12:00 +29°C° 0 mm 5 mps 739 mmHg 22%
    13:00 +30°C° 0 mm 5 mps 738 mmHg 20%
    14:00 +33°C° 0 mm 6 mps 737 mmHg 18%
    15:00 +33°C° 0 mm 5 mps 736 mmHg 17%
    16:00 +32°C° 0 mm 5 mps 736 mmHg 17%
    17:00 +32°C° 0 mm 4 mps 735 mmHg 16%
    18:00 +30°C° 0 mm 5 mps 735 mmHg 18%
    19:00 +28°C° 0 mm 7 mps 735 mmHg 19%
    20:00 +27°C° 0 mm 8 mps 734 mmHg 21%
    21:00 +27°C° 0 mm 8 mps 734 mmHg 20%
    22:00 +27°C° 0 mm 8 mps 733 mmHg 20%
    23:00 +26°C° 0 mm 8 mps 733 mmHg 19%

    23 Septiembre, Lunes

    Tiempo Temperatura Precipitaciones Viento Presión Humedad
    00:00 +27°C° 0 mm 7 mps 733 mmHg 19%
    01:00 +27°C° 0 mm 7 mps 734 mmHg 20%
    02:00 +27°C° 0 mm 7 mps 734 mmHg 20%
    03:00 +24°C° 0 mm 7 mps 735 mmHg 32%
    04:00 +22°C° 0 mm 7 mps 735 mmHg 43%
    05:00 +20°C° 0 mm 7 mps 736 mmHg 55%
    06:00 +17°C° 0 mm 7 mps 737 mmHg 61%
    07:00 +16°C° 0 mm 8 mps 739 mmHg 66%
    08:00 +15°C° 0 mm 8 mps 740 mmHg 72%
    09:00 +14°C° 0.2 mm 7 mps 741 mmHg 68%
    10:00 +14°C° 0.2 mm 6 mps 743 mmHg 65%
    11:00 +13°C° 0.2 mm 5 mps 744 mmHg 61%
    12:00 +15°C° 0 mm 5 mps 745 mmHg 49%
    13:00 +18°C° 0 mm 4 mps 745 mmHg 38%
    14:00 +20°C° 0 mm 4 mps 746 mmHg 27%
    15:00 +19°C° 0 mm 3 mps 746 mmHg 26%
    16:00 +19°C° 0 mm 2 mps 746 mmHg 26%
    17:00 +19°C° 0 mm 1 mps 746 mmHg 25%
    18:00 +17°C° 0 mm 2 mps 746 mmHg 29%
    19:00 +16°C° 0 mm 3 mps 746 mmHg 32%
    20:00 +14°C° 0 mm 4 mps 746 mmHg 35%
    21:00 +13°C° 0 mm 4 mps 745 mmHg 40%
    22:00 +13°C° 0 mm 4 mps 745 mmHg 45%
    23:00 +12°C° 0 mm 5 mps 744 mmHg 50%

    24 Septiembre, Martes

    Tiempo Temperatura Precipitaciones Viento Presión Humedad
    00:00 +12°C° 0 mm 5 mps 744 mmHg 50%
    01:00 +12°C° 0 mm 5 mps 744 mmHg 50%
    02:00 +10°C° 0 mm 5 mps 743 mmHg 50%
    03:00 +10°C° 0 mm 5 mps 743 mmHg 51%
    04:00 +10°C° 0 mm 5 mps 742 mmHg 52%
    05:00 +10°C° 0 mm 5 mps 742 mmHg 52%
    06:00 +13°C° 0 mm 6 mps 742 mmHg 44%
    07:00 +15°C° 0 mm 6 mps 742 mmHg 35%
    08:00 +18°C° 0 mm 7 mps 741 mmHg 26%
    09:00 +20°C° 0 mm 8 mps 741 mmHg 23%
    10:00 +22°C° 0 mm 9 mps 741 mmHg 20%
    11:00 +23°C° 0 mm 9 mps 741 mmHg 17%
    12:00 +23°C° 0 mm 9 mps 741 mmHg 18%
    13:00 +24°C° 0 mm 9 mps 741 mmHg 20%
    14:00 +24°C° 0 mm 9 mps 740 mmHg 21%
    15:00 +22°C° 0 mm 8 mps 741 mmHg 27%
    16:00 +20°C° 0 mm 8 mps 741 mmHg 33%
    17:00 +17°C° 0 mm 7 mps 741 mmHg 39%
    18:00 +16°C° 0 mm 6 mps 742 mmHg 34%
    19:00 +16°C° 0 mm 5 mps 743 mmHg 28%
    20:00 +15°C° 0 mm 4 mps 743 mmHg 23%
    21:00 +14°C° 0 mm 3 mps 744 mmHg 23%
    22:00 +15°C° 0 mm 1 mps 744 mmHg 23%
    23:00 +13°C° 0 mm 0 mps 744 mmHg 24%

    25 Septiembre, Miércoles

    Tiempo Temperatura Precipitaciones Viento Presión Humedad
    00:00 +13°C° 0 mm 1 mps 744 mmHg 25%
    01:00 +12°C° 0 mm 1 mps 744 mmHg 27%
    02:00 +12°C° 0 mm 2 mps 744 mmHg 28%
    03:00 +10°C° 0 mm 2 mps 744 mmHg 30%
    04:00 +9°C° 0 mm 3 mps 744 mmHg 32%
    05:00 +8°C° 0 mm 4 mps 744 mmHg 34%
    06:00 +10°C° 0 mm 4 mps 745 mmHg 33%
    07:00 +9°C° 0 mm 5 mps 745 mmHg 32%
    08:00 +10°C° 0 mm 5 mps 745 mmHg 31%
    09:00 +11°C° 0 mm 6 mps 746 mmHg 29%
    10:00 +13°C° 0 mm 6 mps 746 mmHg 26%
    11:00 +14°C° 0 mm 7 mps 746 mmHg 23%
    12:00 +14°C° 0 mm 7 mps 746 mmHg 21%
    13:00 +15°C° 0 mm 7 mps 747 mmHg 19%
    14:00 +15°C° 0 mm 7 mps 747 mmHg 18%
    15:00 +14°C° 0 mm 6 mps 747 mmHg 19%
    16:00 +13°C° 0 mm 6 mps 747 mmHg 19%
    17:00 +13°C° 0 mm 5 mps 748 mmHg 20%
    18:00 +11°C° 0 mm 4 mps 748 mmHg 24%
    19:00 +10°C° 0 mm 3 mps 749 mmHg 28%
    20:00 +9°C° 0 mm 1 mps 749 mmHg 32%
    21:00 +8°C° 0 mm 1 mps 749 mmHg 33%
    22:00 +8°C° 0 mm 1 mps 749 mmHg 35%
    23:00 +6°C° 0 mm 0 mps 749 mmHg 36%
    Mostrar más